When you browse on this site, cookies collect data to enhance your experience and personalize the content and advertising you see.
Visit our Privacy Policy to learn more. By continuing to use the site, you agree to this use of cookies and data.
  • In Lithuania
  • List of Countries
  • For 7 days
  • Water Temperature
  • Satellite Maps
  • Weather Map
  • Weather Widgets
  • user-avatar
    Login

    Hourly Weather Belyanin

    Today, 21 April, Sunday

    Time Temperature Precipitation Wind Pressure Humidity
    00:00 +5°C° 0 mm 3 mps 768 mmHg 53%
    01:00 +4°C° 0 mm 3 mps 768 mmHg 53%
    02:00 +4°C° 0 mm 3 mps 768 mmHg 54%
    03:00 +3°C° 0 mm 3 mps 767 mmHg 54%
    04:00 +3°C° 0 mm 3 mps 768 mmHg 56%
    05:00 +3°C° 0 mm 3 mps 768 mmHg 58%
    06:00 +3°C° 0 mm 3 mps 768 mmHg 59%
    07:00 +5°C° 0 mm 3 mps 768 mmHg 55%
    08:00 +7°C° 0 mm 4 mps 768 mmHg 50%
    09:00 +9°C° 0 mm 5 mps 768 mmHg 45%
    10:00 +12°C° 0 mm 5 mps 768 mmHg 41%
    11:00 +13°C° 0 mm 5 mps 768 mmHg 37%
    12:00 +14°C° 0 mm 6 mps 768 mmHg 33%
    13:00 +14°C° 0 mm 6 mps 767 mmHg 33%
    14:00 +15°C° 0 mm 6 mps 767 mmHg 34%
    15:00 +15°C° 0 mm 6 mps 767 mmHg 34%
    16:00 +14°C° 0 mm 5 mps 767 mmHg 38%
    17:00 +14°C° 0 mm 5 mps 767 mmHg 41%
    18:00 +13°C° 0 mm 4 mps 767 mmHg 45%
    19:00 +12°C° 0 mm 4 mps 767 mmHg 46%
    20:00 +10°C° 0 mm 4 mps 767 mmHg 48%
    21:00 +8°C° 0 mm 4 mps 767 mmHg 49%
    22:00 +7°C° 0 mm 4 mps 768 mmHg 50%
    23:00 +8°C° 0 mm 3 mps 768 mmHg 51%

    Tomorrow, 22 April, Monday

    Time Temperature Precipitation Wind Pressure Humidity
    00:00 +7°C° 0 mm 3 mps 768 mmHg 53%
    01:00 +7°C° 0 mm 3 mps 768 mmHg 54%
    02:00 +5°C° 0 mm 3 mps 768 mmHg 55%
    03:00 +5°C° 0 mm 3 mps 768 mmHg 56%
    04:00 +5°C° 0 mm 3 mps 768 mmHg 58%
    05:00 +4°C° 0 mm 3 mps 768 mmHg 59%
    06:00 +4°C° 0 mm 3 mps 768 mmHg 61%
    07:00 +7°C° 0 mm 4 mps 768 mmHg 55%
    08:00 +10°C° 0 mm 4 mps 768 mmHg 50%
    09:00 +12°C° 0 mm 5 mps 768 mmHg 44%
    10:00 +13°C° 0 mm 5 mps 768 mmHg 41%
    11:00 +14°C° 0 mm 5 mps 768 mmHg 37%
    12:00 +15°C° 0 mm 5 mps 768 mmHg 34%
    13:00 +16°C° 0 mm 5 mps 768 mmHg 34%
    14:00 +16°C° 0 mm 5 mps 768 mmHg 34%
    15:00 +17°C° 0 mm 4 mps 768 mmHg 33%
    16:00 +15°C° 0 mm 4 mps 768 mmHg 37%
    17:00 +16°C° 0 mm 3 mps 768 mmHg 41%
    18:00 +14°C° 0 mm 3 mps 768 mmHg 45%
    19:00 +13°C° 0 mm 3 mps 768 mmHg 46%
    20:00 +13°C° 0 mm 2 mps 769 mmHg 47%
    21:00 +10°C° 0 mm 2 mps 769 mmHg 49%
    22:00 +9°C° 0 mm 2 mps 769 mmHg 50%
    23:00 +9°C° 0 mm 2 mps 769 mmHg 51%

    Day after tomorrow, 23 April, Tuesday

    Time Temperature Precipitation Wind Pressure Humidity
    00:00 +8°C° 0 mm 2 mps 769 mmHg 51%
    01:00 +8°C° 0 mm 2 mps 770 mmHg 52%
    02:00 +9°C° 0 mm 1 mps 770 mmHg 53%
    03:00 +8°C° 0 mm 1 mps 770 mmHg 53%
    04:00 +8°C° 0 mm 1 mps 770 mmHg 55%
    05:00 +8°C° 0 mm 1 mps 770 mmHg 56%
    06:00 +8°C° 0 mm 1 mps 770 mmHg 57%
    07:00 +10°C° 0 mm 1 mps 771 mmHg 54%
    08:00 +12°C° 0 mm 2 mps 771 mmHg 50%
    09:00 +14°C° 0 mm 2 mps 771 mmHg 47%
    10:00 +15°C° 0 mm 2 mps 771 mmHg 44%
    11:00 +15°C° 0 mm 2 mps 771 mmHg 42%
    12:00 +16°C° 0 mm 2 mps 771 mmHg 39%
    13:00 +16°C° 0 mm 2 mps 771 mmHg 40%
    14:00 +16°C° 0 mm 2 mps 771 mmHg 40%
    15:00 +16°C° 0 mm 2 mps 771 mmHg 41%
    16:00 +16°C° 0 mm 2 mps 771 mmHg 44%
    17:00 +15°C° 0 mm 2 mps 771 mmHg 47%
    18:00 +15°C° 0 mm 2 mps 771 mmHg 50%
    19:00 +14°C° 0 mm 2 mps 771 mmHg 51%
    20:00 +13°C° 0 mm 2 mps 771 mmHg 52%
    21:00 +12°C° 0 mm 2 mps 772 mmHg 53%
    22:00 +12°C° 0 mm 1 mps 772 mmHg 52%
    23:00 +12°C° 0 mm 1 mps 772 mmHg 52%

    24 April, Wednesday

    Time Temperature Precipitation Wind Pressure Humidity
    00:00 +12°C° 0 mm 1 mps 772 mmHg 52%
    01:00 +12°C° 0 mm 1 mps 772 mmHg 53%
    02:00 +10°C° 0 mm 2 mps 771 mmHg 54%
    03:00 +10°C° 0 mm 2 mps 771 mmHg 54%
    04:00 +9°C° 0 mm 2 mps 771 mmHg 58%
    05:00 +9°C° 0 mm 2 mps 771 mmHg 61%
    06:00 +8°C° 0 mm 2 mps 771 mmHg 64%
    07:00 +10°C° 0 mm 3 mps 771 mmHg 59%
    08:00 +12°C° 0 mm 3 mps 772 mmHg 54%
    09:00 +14°C° 0 mm 3 mps 772 mmHg 49%
    10:00 +16°C° 0 mm 3 mps 771 mmHg 47%
    11:00 +17°C° 0 mm 4 mps 771 mmHg 44%
    12:00 +19°C° 0 mm 4 mps 770 mmHg 42%
    13:00 +18°C° 0.2 mm 4 mps 770 mmHg 46%
    14:00 +18°C° 0.2 mm 4 mps 770 mmHg 50%
    15:00 +18°C° 0.2 mm 4 mps 769 mmHg 54%
    16:00 +18°C° 0.4 mm 4 mps 769 mmHg 58%
    17:00 +17°C° 0.4 mm 3 mps 769 mmHg 61%
    18:00 +17°C° 0.4 mm 2 mps 769 mmHg 65%
    19:00 +16°C° 0.1 mm 2 mps 769 mmHg 69%
    20:00 +15°C° 0.1 mm 2 mps 769 mmHg 72%
    21:00 +12°C° 0.1 mm 3 mps 770 mmHg 76%
    22:00 +12°C° 0 mm 3 mps 770 mmHg 78%
    23:00 +11°C° 0 mm 3 mps 770 mmHg 80%

    25 April, Thursday

    Time Temperature Precipitation Wind Pressure Humidity
    00:00 +11°C° 0 mm 3 mps 770 mmHg 82%
    01:00 +11°C° 0 mm 3 mps 770 mmHg 84%
    02:00 +10°C° 0 mm 3 mps 770 mmHg 85%
    03:00 +10°C° 0 mm 3 mps 770 mmHg 86%
    04:00 +10°C° 0 mm 2 mps 770 mmHg 86%
    05:00 +10°C° 0 mm 2 mps 770 mmHg 86%
    06:00 +10°C° 0 mm 2 mps 770 mmHg 86%
    07:00 +13°C° 0 mm 2 mps 770 mmHg 78%
    08:00 +15°C° 0 mm 2 mps 771 mmHg 70%
    09:00 +17°C° 0 mm 2 mps 771 mmHg 61%
    10:00 +18°C° 0 mm 3 mps 771 mmHg 55%
    11:00 +19°C° 0 mm 3 mps 771 mmHg 49%
    12:00 +21°C° 0 mm 3 mps 770 mmHg 43%
    13:00 +21°C° 0 mm 3 mps 770 mmHg 43%
    14:00 +21°C° 0 mm 2 mps 770 mmHg 42%
    15:00 +21°C° 0 mm 2 mps 770 mmHg 41%
    16:00 +22°C° 0 mm 1 mps 770 mmHg 44%
    17:00 +22°C° 0 mm 1 mps 770 mmHg 47%
    18:00 +20°C° 0 mm 0 mps 770 mmHg 50%
    19:00 +18°C° 0 mm 0 mps 770 mmHg 52%
    20:00 +17°C° 0 mm 0 mps 770 mmHg 55%
    21:00 +15°C° 0 mm 0 mps 770 mmHg 57%
    22:00 +15°C° 0 mm 1 mps 770 mmHg 59%
    23:00 +15°C° 0 mm 1 mps 770 mmHg 61%

    26 April, Friday

    Time Temperature Precipitation Wind Pressure Humidity
    00:00 +14°C° 0 mm 1 mps 770 mmHg 63%
    01:00 +14°C° 0 mm 1 mps 770 mmHg 63%
    02:00 +14°C° 0 mm 1 mps 769 mmHg 64%
    03:00 +14°C° 0 mm 1 mps 769 mmHg 65%
    04:00 +14°C° 0 mm 1 mps 769 mmHg 66%
    05:00 +14°C° 0 mm 1 mps 769 mmHg 68%
    06:00 +13°C° 0 mm 1 mps 769 mmHg 70%
    07:00 +15°C° 0 mm 1 mps 769 mmHg 64%
    08:00 +17°C° 0 mm 2 mps 769 mmHg 58%
    09:00 +20°C° 0 mm 2 mps 769 mmHg 52%
    10:00 +22°C° 0 mm 1 mps 769 mmHg 48%
    11:00 +23°C° 0 mm 1 mps 769 mmHg 44%
    12:00 +23°C° 0 mm 0 mps 768 mmHg 40%
    13:00 +22°C° 0 mm 0 mps 768 mmHg 40%
    14:00 +22°C° 0 mm 0 mps 768 mmHg 40%
    15:00 +22°C° 0 mm 0 mps 767 mmHg 40%
    16:00 +21°C° 0 mm 0 mps 767 mmHg 44%
    17:00 +21°C° 0 mm 0 mps 767 mmHg 48%
    18:00 +20°C° 0 mm 0 mps 766 mmHg 52%
    19:00 +19°C° 0 mm 0 mps 766 mmHg 52%
    20:00 +18°C° 0 mm 0 mps 767 mmHg 52%
    21:00 +18°C° 0 mm 0 mps 767 mmHg 52%
    22:00 +17°C° 0 mm 0 mps 766 mmHg 54%
    23:00 +16°C° 0 mm 0 mps 766 mmHg 56%
    Show more